When you browse on this site, cookies collect data to enhance your experience and personalize the content and advertising you see.
Visit our Privacy Policy to learn more. By continuing to use the site, you agree to this use of cookies and data.
  • In Germany
  • List of Countries
  • For 7 days
  • Water Temperature
  • Weather Map
  • Weather Widgets
  • user-avatar
    Login

    Hourly Weather Northampton

    Today, 24 September, Tuesday

    Time Temperature Precipitation Wind Pressure Humidity
    00:00 +17°C° 0 mm 4 mps 745 mmHg 94%
    01:00 +17°C° 0.2 mm 4 mps 745 mmHg 94%
    02:00 +17°C° 0.2 mm 4 mps 744 mmHg 94%
    03:00 +16°C° 0.2 mm 5 mps 743 mmHg 95%
    04:00 +16°C° 0.9 mm 5 mps 743 mmHg 95%
    05:00 +16°C° 0.9 mm 5 mps 742 mmHg 94%
    06:00 +16°C° 0.9 mm 5 mps 741 mmHg 94%
    07:00 +16°C° 3.9 mm 5 mps 741 mmHg 94%
    08:00 +16°C° 3.9 mm 5 mps 740 mmHg 94%
    09:00 +15°C° 3.9 mm 5 mps 740 mmHg 94%
    10:00 +16°C° 0.6 mm 6 mps 740 mmHg 88%
    11:00 +17°C° 0.6 mm 6 mps 739 mmHg 83%
    12:00 +19°C° 0.6 mm 6 mps 739 mmHg 77%
    13:00 +18°C° 0.6 mm 7 mps 739 mmHg 77%
    14:00 +18°C° 0.6 mm 7 mps 739 mmHg 76%
    15:00 +18°C° 0.6 mm 7 mps 739 mmHg 76%
    16:00 +17°C° 0 mm 6 mps 739 mmHg 79%
    17:00 +16°C° 0 mm 5 mps 740 mmHg 81%
    18:00 +15°C° 0 mm 5 mps 740 mmHg 83%
    19:00 +14°C° 0.1 mm 5 mps 740 mmHg 86%
    20:00 +14°C° 0.1 mm 5 mps 740 mmHg 89%
    21:00 +14°C° 0.1 mm 5 mps 741 mmHg 92%
    22:00 +13°C° 0.1 mm 5 mps 741 mmHg 92%
    23:00 +13°C° 0.1 mm 5 mps 740 mmHg 91%

    Tomorrow, 25 September, Wednesday

    Time Temperature Precipitation Wind Pressure Humidity
    00:00 +13°C° 0.1 mm 5 mps 740 mmHg 91%
    01:00 +13°C° 1.2 mm 5 mps 740 mmHg 92%
    02:00 +13°C° 1.2 mm 5 mps 739 mmHg 92%
    03:00 +14°C° 1.2 mm 5 mps 739 mmHg 93%
    04:00 +13°C° 0.3 mm 5 mps 739 mmHg 94%
    05:00 +13°C° 0.3 mm 4 mps 738 mmHg 94%
    06:00 +13°C° 0.3 mm 4 mps 738 mmHg 94%
    07:00 +14°C° 0.3 mm 3 mps 738 mmHg 94%
    08:00 +14°C° 0.3 mm 3 mps 739 mmHg 94%
    09:00 +14°C° 0.3 mm 3 mps 739 mmHg 94%
    10:00 +16°C° 0.2 mm 3 mps 739 mmHg 91%
    11:00 +17°C° 0.2 mm 3 mps 739 mmHg 87%
    12:00 +18°C° 0.2 mm 3 mps 740 mmHg 84%
    13:00 +18°C° 0.1 mm 3 mps 740 mmHg 81%
    14:00 +19°C° 0.1 mm 4 mps 740 mmHg 77%
    15:00 +19°C° 0.1 mm 4 mps 741 mmHg 73%
    16:00 +18°C° 0.1 mm 4 mps 741 mmHg 77%
    17:00 +17°C° 0.1 mm 4 mps 741 mmHg 81%
    18:00 +15°C° 0.1 mm 4 mps 742 mmHg 85%
    19:00 +15°C° 0 mm 4 mps 742 mmHg 87%
    20:00 +14°C° 0 mm 4 mps 743 mmHg 89%
    21:00 +13°C° 0 mm 4 mps 743 mmHg 90%
    22:00 +13°C° 0 mm 4 mps 743 mmHg 92%
    23:00 +13°C° 0 mm 4 mps 743 mmHg 94%

    Day after tomorrow, 26 September, Thursday

    Time Temperature Precipitation Wind Pressure Humidity
    00:00 +13°C° 0 mm 4 mps 743 mmHg 95%
    01:00 +14°C° 0.4 mm 4 mps 742 mmHg 95%
    02:00 +14°C° 0.4 mm 5 mps 742 mmHg 95%
    03:00 +15°C° 0.4 mm 5 mps 742 mmHg 94%
    04:00 +15°C° 0.3 mm 5 mps 742 mmHg 93%
    05:00 +15°C° 0.3 mm 6 mps 742 mmHg 92%
    06:00 +16°C° 0.3 mm 6 mps 742 mmHg 91%
    07:00 +16°C° 0.1 mm 6 mps 742 mmHg 89%
    08:00 +16°C° 0.1 mm 6 mps 742 mmHg 87%
    09:00 +16°C° 0.1 mm 7 mps 743 mmHg 84%
    10:00 +16°C° 0.3 mm 7 mps 743 mmHg 81%
    11:00 +17°C° 0.3 mm 7 mps 743 mmHg 77%
    12:00 +17°C° 0.3 mm 7 mps 743 mmHg 74%
    13:00 +17°C° 0.1 mm 7 mps 743 mmHg 72%
    14:00 +16°C° 0.1 mm 7 mps 743 mmHg 71%
    15:00 +16°C° 0.1 mm 7 mps 743 mmHg 69%
    16:00 +15°C° 0 mm 6 mps 743 mmHg 72%
    17:00 +14°C° 0 mm 6 mps 743 mmHg 76%
    18:00 +13°C° 0 mm 5 mps 743 mmHg 79%
    19:00 +13°C° 0 mm 5 mps 744 mmHg 80%
    20:00 +12°C° 0 mm 5 mps 744 mmHg 81%
    21:00 +12°C° 0 mm 5 mps 745 mmHg 82%
    22:00 +12°C° 0.1 mm 5 mps 745 mmHg 83%
    23:00 +11°C° 0.1 mm 6 mps 744 mmHg 83%

    27 September, Friday

    Time Temperature Precipitation Wind Pressure Humidity
    00:00 +11°C° 0.1 mm 6 mps 744 mmHg 84%
    01:00 +11°C° 0 mm 6 mps 744 mmHg 85%
    02:00 +10°C° 0 mm 6 mps 744 mmHg 86%
    03:00 +10°C° 0 mm 6 mps 744 mmHg 87%
    04:00 +10°C° 0 mm 6 mps 743 mmHg 86%
    05:00 +11°C° 0 mm 7 mps 743 mmHg 85%
    06:00 +11°C° 0 mm 7 mps 742 mmHg 84%
    07:00 +11°C° 0.2 mm 7 mps 742 mmHg 82%
    08:00 +12°C° 0.2 mm 8 mps 743 mmHg 81%
    09:00 +13°C° 0.2 mm 8 mps 743 mmHg 79%
    10:00 +13°C° 0.1 mm 8 mps 743 mmHg 75%
    11:00 +15°C° 0.1 mm 8 mps 743 mmHg 70%
    12:00 +15°C° 0.1 mm 7 mps 744 mmHg 65%
    13:00 +15°C° 0.2 mm 8 mps 743 mmHg 66%
    14:00 +15°C° 0.2 mm 8 mps 743 mmHg 67%
    15:00 +15°C° 0.2 mm 8 mps 743 mmHg 67%
    16:00 +15°C° 0.2 mm 8 mps 743 mmHg 72%
    17:00 +14°C° 0.2 mm 7 mps 743 mmHg 76%
    18:00 +12°C° 0.2 mm 7 mps 744 mmHg 81%
    19:00 +12°C° 0.1 mm 7 mps 744 mmHg 81%
    20:00 +12°C° 0.1 mm 7 mps 744 mmHg 82%
    21:00 +11°C° 0.1 mm 7 mps 744 mmHg 83%
    22:00 +11°C° 0.1 mm 7 mps 744 mmHg 84%
    23:00 +11°C° 0.1 mm 7 mps 744 mmHg 85%

    28 September, Saturday

    Time Temperature Precipitation Wind Pressure Humidity
    00:00 +11°C° 0.1 mm 7 mps 745 mmHg 86%
    01:00 +11°C° 0 mm 7 mps 745 mmHg 86%
    02:00 +11°C° 0 mm 6 mps 745 mmHg 86%
    03:00 +10°C° 0 mm 5 mps 745 mmHg 86%
    04:00 +10°C° 0 mm 5 mps 746 mmHg 88%
    05:00 +10°C° 0 mm 5 mps 746 mmHg 89%
    06:00 +10°C° 0 mm 5 mps 746 mmHg 91%
    07:00 +10°C° 0.2 mm 5 mps 747 mmHg 89%
    08:00 +11°C° 0.2 mm 6 mps 747 mmHg 88%
    09:00 +13°C° 0.2 mm 6 mps 747 mmHg 86%
    10:00 +14°C° 0.2 mm 7 mps 748 mmHg 81%
    11:00 +15°C° 0.2 mm 7 mps 748 mmHg 76%
    12:00 +16°C° 0.2 mm 7 mps 748 mmHg 70%
    13:00 +15°C° 0.2 mm 7 mps 748 mmHg 72%
    14:00 +15°C° 0.2 mm 7 mps 748 mmHg 74%
    15:00 +15°C° 0.2 mm 7 mps 748 mmHg 76%
    16:00 +14°C° 0.1 mm 6 mps 748 mmHg 78%
    17:00 +13°C° 0.1 mm 5 mps 748 mmHg 80%
    18:00 +12°C° 0.1 mm 5 mps 748 mmHg 82%
    19:00 +12°C° 0 mm 4 mps 748 mmHg 83%
    20:00 +11°C° 0 mm 4 mps 748 mmHg 84%
    21:00 +11°C° 0 mm 4 mps 748 mmHg 86%
    22:00 +11°C° 0.1 mm 4 mps 748 mmHg 87%
    23:00 +11°C° 0.1 mm 4 mps 747 mmHg 89%

    29 September, Sunday

    Time Temperature Precipitation Wind Pressure Humidity
    00:00 +10°C° 0.1 mm 5 mps 747 mmHg 91%
    01:00 +11°C° 1.1 mm 4 mps 746 mmHg 92%
    02:00 +11°C° 1.1 mm 4 mps 746 mmHg 93%
    03:00 +11°C° 1.1 mm 4 mps 745 mmHg 94%
    04:00 +12°C° 0.8 mm 4 mps 744 mmHg 94%
    05:00 +12°C° 0.8 mm 5 mps 744 mmHg 94%
    06:00 +12°C° 0.8 mm 5 mps 743 mmHg 93%
    07:00 +11°C° 0.6 mm 6 mps 742 mmHg 93%
    08:00 +13°C° 0.6 mm 6 mps 741 mmHg 92%
    09:00 +12°C° 0.6 mm 7 mps 741 mmHg 92%
    10:00 +14°C° 0.3 mm 6 mps 740 mmHg 90%
    11:00 +15°C° 0.3 mm 6 mps 740 mmHg 89%
    12:00 +16°C° 0.3 mm 5 mps 739 mmHg 88%
    13:00 +16°C° 0.5 mm 5 mps 739 mmHg 89%
    14:00 +16°C° 0.5 mm 5 mps 738 mmHg 90%
    15:00 +16°C° 0.5 mm 5 mps 738 mmHg 91%
    16:00 +16°C° 0.1 mm 5 mps 738 mmHg 90%
    17:00 +16°C° 0.1 mm 6 mps 738 mmHg 90%
    18:00 +16°C° 0.1 mm 6 mps 739 mmHg 90%
    19:00 +15°C° 0 mm 6 mps 740 mmHg 89%
    20:00 +13°C° 0 mm 6 mps 741 mmHg 88%
    21:00 +11°C° 0 mm 6 mps 742 mmHg 88%
    22:00 +12°C° 0 mm 5 mps 742 mmHg 90%
    23:00 +11°C° 0 mm 4 mps 743 mmHg 92%
    Show more